| time (UTC) | temp F | wind direction | speed knots | gust knots | rain 1hr in | rain 24hr in | rain mn in | humidity % | barometer mb |
| 20260506113454 | 70 | 270 | 0.0 | 0.0 | 0.00 | 0.14 | 0.00 | 61 | 1058.0 |
| 20260506111556 | 67 | 135 | 0.0 | 0.0 | 0.00 | 0.14 | 0.00 | 63 | 1058.0 |
| 20260506105655 | 66 | 315 | 0.0 | 0.0 | 0.00 | 0.14 | 0.00 | 64 | 1059.0 |
| 20260506103755 | 66 | 202 | 0.0 | 0.0 | 0.00 | 0.14 | 0.00 | 65 | 1059.0 |
| 20260506101856 | 66 | 292 | 0.0 | 0.0 | 0.00 | 0.14 | 0.00 | 67 | 1059.0 |
| 20260506095954 | 65 | 315 | 0.0 | 0.0 | 0.00 | 0.14 | 0.00 | 67 | 1059.0 |
| 20260506092154 | 65 | 315 | 0.0 | 0.0 | 0.00 | 0.14 | 0.00 | 68 | 1059.0 |
| 20260506090256 | 68 | 135 | 0.0 | 0.0 | 0.02 | 0.14 | 0.00 | 69 | 1059.0 |
| 20260506084353 | 65 | 90 | 0.0 | 0.0 | 0.02 | 0.14 | 0.00 | 75 | 1059.0 |
| 20260506082455 | 62 | 248 | 0.0 | 0.0 | 0.02 | 0.14 | 0.00 | 77 | 1059.0 |
| 20260506080556 | 61 | 292 | 0.0 | 0.0 | 0.00 | 0.12 | 0.00 | 79 | 1059.0 |
| 20260506070857 | 60 | 315 | 0.0 | 0.0 | 0.00 | 0.12 | 0.00 | 86 | 1059.0 |
| 20260506061156 | 54 | 135 | 0.0 | 0.0 | 0.00 | 0.12 | 0.00 | 86 | 1059.0 |
| 20260506043657 | 50 | 158 | 0.0 | 0.0 | 0.00 | 0.12 | 0.00 | 87 | 1059.0 |
| 20260506041755 | 51 | 158 | 0.0 | 0.0 | 0.00 | 0.12 | 0.00 | 87 | 1059.0 |
| 20260506035854 | 51 | 158 | 0.0 | 0.0 | 0.00 | 0.12 | 0.00 | 87 | 1059.0 |
| 20260506033955 | 51 | 158 | 0.0 | 0.0 | 0.00 | 0.12 | 0.00 | 87 | 1059.0 |
| 20260506032055 | 52 | 158 | 0.0 | 0.0 | 0.00 | 0.12 | 0.00 | 87 | 1059.0 |
| 20260506030154 | 52 | 158 | 0.0 | 0.0 | 0.00 | 0.12 | 0.00 | 87 | 1059.0 |
| 20260506024255 | 53 | 158 | 0.0 | 0.0 | 0.00 | 0.12 | 0.00 | 86 | 1059.0 |
| 20260506022357 | 52 | 135 | 0.0 | 0.0 | 0.00 | 0.12 | 0.00 | 87 | 1059.0 |
| 20260506020455 | 52 | 135 | 0.0 | 0.0 | 0.00 | 0.12 | 0.00 | 87 | 1059.0 |
| 20260506014636 | 52 | 135 | 0.0 | 0.0 | 0.00 | 0.12 | 0.00 | 87 | 1059.0 |
| 20260506014556 | 52 | 135 | 0.0 | 0.0 | 0.00 | 0.12 | 0.00 | 87 | 1059.0 |
| 20260506012657 | 53 | 158 | 0.0 | 0.0 | 0.00 | 0.12 | 0.00 | 87 | 1059.0 |
| 20260506010758 | 53 | 158 | 0.0 | 0.0 | 0.00 | 0.12 | 0.00 | 87 | 1059.0 |
| 20260506004856 | 54 | 135 | 0.0 | 0.0 | 0.00 | 0.12 | 0.00 | 87 | 1059.0 |
| 20260506002956 | 54 | 135 | 0.0 | 0.0 | 0.00 | 0.12 | 0.00 | 87 | 1060.0 |
| 20260506001055 | 54 | 158 | 0.0 | 0.0 | 0.00 | 0.12 | 0.00 | 87 | 1060.0 |
| 20260505233255 | 54 | 158 | 0.0 | 0.0 | 0.00 | 0.12 | 0.00 | 87 | 1060.0 |
| 20260505231355 | 55 | 158 | 0.0 | 0.0 | 0.00 | 0.12 | 0.00 | 87 | 1060.0 |
| 20260505225457 | 55 | 158 | 0.0 | 0.0 | 0.00 | 0.12 | 0.00 | 87 | 1060.0 |
| 20260505223557 | 55 | 158 | 0.0 | 0.0 | 0.00 | 0.12 | 0.00 | 87 | 1060.0 |
| 20260505221655 | 56 | 135 | 0.0 | 0.0 | 0.00 | 0.12 | 0.00 | 87 | 1060.0 |
| 20260505215755 | 56 | 135 | 0.0 | 0.0 | 0.00 | 0.12 | 0.00 | 87 | 1060.0 |
| 20260505210057 | 58 | 135 | 0.0 | 0.0 | 0.00 | 0.12 | 0.00 | 86 | 1060.0 |
| 20260505204156 | 58 | 135 | 0.0 | 0.0 | 0.00 | 0.12 | 0.00 | 86 | 1060.0 |
| 20260505202257 | 59 | 158 | 0.0 | 0.0 | 0.04 | 0.12 | 0.00 | 87 | 1060.0 |
| 20260505200356 | 59 | 112 | 0.0 | 0.0 | 0.06 | 0.12 | 0.00 | 87 | 1060.0 |
| 20260505194456 | 59 | 135 | 0.0 | 0.0 | 0.08 | 0.12 | 0.00 | 87 | 1060.0 |
| 20260505192555 | 59 | 248 | 0.0 | 0.0 | 0.04 | 0.08 | 0.00 | 86 | 1060.0 |
| 20260505190656 | 60 | 135 | 0.0 | 0.0 | 0.02 | 0.06 | 0.00 | 85 | 1060.0 |
| 20260505182857 | 62 | 135 | 0.0 | 0.0 | 0.00 | 0.04 | 0.00 | 81 | 1059.0 |
| 20260505180957 | 63 | 135 | 0.0 | 0.0 | 0.00 | 0.04 | 0.00 | 79 | 1059.0 |
| 20260505175059 | 64 | 135 | 0.0 | 0.0 | 0.00 | 0.04 | 0.00 | 78 | 1059.0 |
| 20260505173155 | 65 | 135 | 0.0 | 0.0 | 0.00 | 0.04 | 0.00 | 77 | 1059.0 |
| 20260505171255 | 66 | 135 | 0.0 | 0.0 | 0.00 | 0.04 | 0.00 | 78 | 1059.0 |
| 20260505165355 | 66 | 135 | 0.0 | 0.0 | 0.00 | 0.04 | 0.00 | 78 | 1059.0 |
| 20260505163456 | 66 | 158 | 0.0 | 0.0 | 0.00 | 0.04 | 0.00 | 77 | 1059.0 |
| 20260505161556 | 67 | 135 | 0.0 | 0.0 | 0.00 | 0.04 | 0.00 | 77 | 1060.0 |
| 20260505140256 | 63 | 135 | 0.0 | 0.0 | 0.02 | 0.02 | 0.00 | 83 | 1061.0 |
| 20260505124655 | 65 | 135 | 0.0 | 0.0 | 0.00 | 0.00 | 0.00 | 72 | 1061.0 |
| 20260505120953 | 72 | 338 | 0.0 | 0.0 | 0.00 | 0.00 | 0.00 | 58 | 1060.0 |
| 20260505120857 | 72 | 338 | 0.0 | 0.0 | 0.00 | 0.00 | 0.00 | 58 | 1060.0 |
| 20260505114957 | 74 | 0 | 0.0 | 0.0 | 0.00 | 0.00 | 0.00 | 57 | 1060.0 |